FW1757 Weather Reports


Display with metric or nautical units.
time (UTC)temp
F
wind
direction
speed
MPH
gust
MPH
rain 1hr
in
rain 24hr
in
rain mn
in
humidity
%
barometer
mb
20260505121058 58 294 0.0 0.0 0.00 0.00 0.00 62 1009.6
20260505120554 58 292 0.0 0.0 0.00 0.00 0.00 62 1009.6
20260505120108 58 266 0.0 0.0 0.00 0.00 0.00 62 1009.6
20260505115553 58 278 0.0 0.0 0.00 0.00 0.00 62 1009.6
20260505115052 58 280 0.0 0.0 0.00 0.00 0.00 62 1009.6
20260505114552 59 295 0.0 0.0 0.00 0.00 0.00 63 1009.5
20260505114052 59 244 0.0 0.0 0.00 0.00 0.00 63 1009.6
20260505113550 59 288 0.0 0.0 0.00 0.00 0.00 63 1009.7
20260505113054 59 257 0.0 0.0 0.00 0.00 0.00 63 1009.6
20260505112552 59 251 0.0 0.0 0.00 0.00 0.00 63 1009.6
20260505112049 59 246 0.0 0.0 0.00 0.00 0.00 63 1009.5
20260505111549 59 298 0.0 0.0 0.00 0.00 0.00 63 1009.4
20260505111049 59 290 0.0 0.0 0.00 0.00 0.00 63 1009.5
20260505110549 59 269 0.0 0.0 0.00 0.00 0.00 63 1009.4
20260505102043 60 291 0.0 0.0 0.00 0.00 0.00 64 1009.2
20260505101543 60 285 0.0 0.0 0.00 0.00 0.00 64 1009.1
20260505101042 60 282 0.0 0.0 0.00 0.00 0.00 65 1009.2
20260505100542 60 291 0.0 0.0 0.00 0.00 0.00 65 1009.1
20260505100042 61 310 0.0 0.0 0.00 0.00 0.00 65 1009.1
20260505095541 61 277 0.0 0.0 0.00 0.00 0.00 65 1009.1
20260505095039 61 284 0.0 0.0 0.00 0.00 0.00 65 1009.0
20260505094541 61 279 0.0 0.0 0.00 0.00 0.00 65 1009.0
20260505094039 61 279 0.0 0.0 0.00 0.00 0.00 65 1008.9
20260505093538 61 299 0.0 0.0 0.00 0.00 0.00 65 1009.0
20260505093038 61 288 0.0 0.0 0.00 0.00 0.00 65 1009.0
20260505092537 61 261 0.0 0.0 0.00 0.00 0.00 65 1008.9
20260505092037 61 288 0.0 0.0 0.00 0.00 0.00 66 1009.0
20260505091536 62 279 0.0 0.0 0.00 0.00 0.00 66 1009.0
20260505091038 62 250 0.0 0.0 0.00 0.00 0.00 66 1008.9
20260505090534 62 301 0.0 0.0 0.00 0.00 0.00 66 1008.9
20260505090037 62 278 0.0 0.0 0.00 0.00 0.00 66 1008.9
20260505085534 62 272 0.0 0.0 0.00 0.00 0.00 66 1008.7
20260505085033 62 309 0.0 0.0 0.00 0.00 0.00 66 1008.7
20260505084532 63 261 0.0 0.0 0.00 0.00 0.00 66 1008.6
20260505084031 63 267 0.0 0.0 0.00 0.00 0.00 66 1008.7
20260505083531 63 323 0.0 0.0 0.00 0.00 0.00 65 1008.6
20260505083030 63 220 0.0 0.0 0.00 0.00 0.00 65 1008.5
20260505082530 63 259 0.0 0.0 0.00 0.00 0.00 65 1008.6
20260505082030 63 271 0.0 0.0 0.00 0.00 0.00 64 1008.5
20260505081541 63 279 0.0 0.0 0.00 0.00 0.00 64 1008.6
20260505081029 63 284 0.0 0.0 0.00 0.00 0.00 64 1008.6
20260505080528 63 272 0.0 0.0 0.00 0.00 0.00 64 1008.6
20260505080028 63 275 0.0 0.0 0.00 0.00 0.00 64 1008.4
20260505075527 63 280 0.0 0.0 0.00 0.00 0.00 64 1008.5
20260505075029 63 283 0.0 0.0 0.00 0.00 0.00 64 1008.5
20260505074526 63 296 0.0 0.0 0.00 0.00 0.00 64 1008.4
20260505074027 63 277 0.0 0.0 0.00 0.00 0.00 65 1008.3
20260505073527 63 291 0.0 0.0 0.00 0.00 0.00 64 1008.4
20260505073032 64 285 0.0 0.0 0.00 0.00 0.00 64 1008.3
20260505072524 64 285 0.0 0.0 0.00 0.00 0.00 64 1008.4
20260505072023 64 294 0.0 0.0 0.00 0.00 0.00 64 1008.4
20260505071543 64 281 0.0 0.0 0.00 0.00 0.00 65 1008.3
20260505071022 64 290 0.0 0.0 0.00 0.00 0.00 65 1008.3
20260505070522 64 286 0.0 0.0 0.00 0.00 0.00 65 1008.0
20260505070021 64 294 0.0 0.0 0.00 0.00 0.00 65 1008.1
20260505065525 64 261 0.0 0.0 0.00 0.00 0.00 65 1008.1
20260505065020 64 279 0.0 0.0 0.00 0.00 0.00 65 1008.1
20260505064524 64 285 0.0 0.0 0.00 0.00 0.00 65 1007.9
20260505064023 64 285 0.0 0.0 0.00 0.00 0.00 66 1007.9
20260505063519 64 276 0.0 0.0 0.00 0.00 0.00 66 1007.8
20260505063019 64 277 0.0 0.0 0.00 0.00 0.00 66 1007.9
20260505062519 65 269 0.0 0.0 0.00 0.00 0.00 66 1007.9
20260505062019 65 269 0.0 0.0 0.00 0.00 0.00 66 1007.8
20260505061519 65 288 0.0 0.0 0.00 0.00 0.00 66 1007.9
20260505061022 65 234 0.0 0.0 0.00 0.00 0.00 66 1007.8
20260505060518 65 282 0.0 0.0 0.00 0.00 0.00 66 1007.7
20260505060018 65 279 0.0 0.0 0.00 0.00 0.00 66 1007.5
20260505055518 65 279 0.0 0.0 0.00 0.00 0.00 66 1007.6
20260505055018 65 259 0.0 0.0 0.00 0.00 0.00 66 1007.6
20260505054523 65 254 0.0 0.0 0.00 0.00 0.00 66 1007.7
20260505054018 65 266 0.0 0.0 0.00 0.00 0.00 66 1007.6
20260505053517 66 281 0.0 0.0 0.00 0.00 0.00 65 1007.6
20260505053024 66 265 0.0 0.0 0.00 0.00 0.00 65 1007.6
20260505052519 66 216 0.0 0.0 0.00 0.00 0.00 65 1007.6
20260505052017 66 279 0.0 0.0 0.00 0.00 0.00 65 1007.6
20260505051531 66 270 0.0 0.0 0.00 0.00 0.00 65 1007.6
20260505051017 66 249 0.0 0.0 0.00 0.00 0.00 65 1007.5
20260505050520 66 241 0.0 0.0 0.00 0.00 0.00 65 1007.4
20260505041517 67 319 0.0 0.0 0.00 0.00 0.00 62 1007.0
20260505041014 67 281 0.0 0.0 0.00 0.00 0.00 61 1006.8
20260505040514 68 278 0.0 0.0 0.00 0.00 0.00 62 1006.8
20260505040021 68 292 0.0 0.0 0.00 0.00 0.00 61 1006.6
20260505035514 68 292 0.0 0.0 0.00 0.00 0.00 61 1006.6
20260505035013 68 276 0.0 0.0 0.00 0.00 0.00 60 1006.6
20260505034512 68 273 0.0 0.0 0.00 0.00 0.00 60 1006.4
20260505034016 68 306 0.0 0.0 0.00 0.00 0.00 59 1006.4
20260505033512 68 300 0.0 0.0 0.00 0.00 0.00 59 1006.4
20260505033012 69 279 0.0 0.0 0.00 0.00 0.00 59 1006.4
20260505032511 69 292 0.0 0.0 0.00 0.00 0.00 58 1006.4
20260505032016 69 294 0.0 0.0 0.00 0.00 0.00 58 1006.4
20260505031511 69 296 0.0 0.0 0.00 0.00 0.00 58 1006.3
20260505031016 70 275 0.0 0.0 0.00 0.00 0.00 57 1006.3
20260505030513 70 297 0.0 0.0 0.00 0.00 0.00 56 1006.2
20260505030022 71 285 0.0 0.0 0.00 0.00 0.00 56 1006.2
20260505025511 71 280 0.0 0.0 0.00 0.00 0.00 55 1006.1
20260505025011 72 300 0.0 0.0 0.00 0.00 0.00 55 1006.0
20260505024511 72 292 0.0 0.0 0.00 0.00 0.00 54 1005.9
20260505024010 72 298 0.0 0.0 0.00 0.00 0.00 54 1005.9
20260505023509 73 304 0.0 0.0 0.00 0.00 0.00 53 1005.8
20260505023009 73 272 0.0 0.0 0.00 0.00 0.00 53 1005.8
20260505022511 73 279 0.0 0.0 0.00 0.00 0.00 52 1005.7
20260505022009 74 292 0.0 0.0 0.00 0.00 0.00 52 1005.7
20260505021510 74 294 0.0 0.0 0.00 0.00 0.00 51 1005.8
20260505021009 74 232 0.0 0.0 0.00 0.00 0.00 52 1005.7
20260505020509 74 302 0.0 0.0 0.00 0.00 0.00 51 1005.7
20260505020009 74 226 0.0 0.0 0.00 0.00 0.00 51 1005.7
20260505015509 74 273 0.0 0.0 0.00 0.00 0.00 51 1005.6
20260505015012 75 298 0.0 0.0 0.00 0.00 0.00 50 1005.7
20260505014508 75 269 0.0 0.0 0.00 0.00 0.00 50 1005.7
20260505014008 75 295 0.0 0.0 0.00 0.00 0.00 50 1005.8
20260505013507 75 279 0.0 0.0 0.00 0.00 0.00 51 1005.6
20260505013008 75 292 0.0 0.0 0.00 0.00 0.00 50 1005.8
20260505012508 75 290 0.0 0.0 0.00 0.00 0.00 50 1005.7
20260505012008 75 299 0.0 0.0 0.00 0.00 0.00 50 1005.6
20260505011510 75 292 0.0 0.0 0.00 0.00 0.00 50 1005.7
20260505011008 76 288 0.0 0.0 0.00 0.00 0.00 49 1005.7
20260505010506 75 284 0.0 0.0 0.00 0.00 0.00 50 1005.6
20260505010006 76 265 0.0 0.0 0.00 0.00 0.00 50 1005.7
20260505005506 76 279 0.0 0.0 0.00 0.00 0.00 49 1005.7
20260505005006 76 282 0.0 0.0 0.00 0.00 0.00 49 1005.7
20260505004508 76 289 0.0 0.0 0.00 0.00 0.00 48 1005.6
20260505004005 77 309 0.0 0.0 0.00 0.00 0.00 48 1005.8
20260505003508 77 315 0.0 0.0 0.00 0.00 0.00 47 1005.7
20260505003005 77 271 0.0 0.0 0.00 0.00 0.00 46 1005.7
20260505002505 78 308 0.0 0.0 0.00 0.00 0.00 47 1005.7
20260505002004 78 270 0.0 0.0 0.00 0.00 0.00 47 1005.7
20260505001505 78 278 0.0 0.0 0.00 0.00 0.00 46 1005.8
20260505001004 78 276 0.0 0.0 0.00 0.00 0.00 46 1005.8
20260505000504 78 285 0.0 0.0 0.00 0.00 0.00 47 1005.8
20260505000004 78 270 0.0 0.0 0.00 0.00 0.00 48 1005.8
20260504235504 78 296 0.0 0.0 0.00 0.00 0.00 47 1005.7
20260504235004 78 290 0.0 0.0 0.00 0.00 0.00 45 1005.7
20260504234506 78 269 0.0 0.0 0.00 0.00 0.00 46 1005.8
20260504234003 78 304 0.0 0.0 0.00 0.00 0.00 46 1005.6
20260504233502 78 264 0.0 0.0 0.00 0.00 0.00 47 1005.8
20260504233002 78 307 0.0 0.0 0.00 0.00 0.00 45 1005.8
20260504232501 78 300 0.0 0.0 0.00 0.00 0.00 45 1005.7
20260504232100 78 220 0.0 0.0 0.00 0.00 0.00 49 1005.8
20260504231600 78 299 0.0 0.0 0.00 0.00 0.00 47 1005.8
20260504231059 78 292 0.0 0.0 0.00 0.00 0.00 48 1005.9
20260504230558 77 247 0.0 0.0 0.00 0.00 0.00 46 1006.1
20260504230057 77 304 0.0 0.0 0.00 0.00 0.00 47 1006.1
20260504225557 77 281 0.0 0.0 0.00 0.00 0.00 48 1006.2
20260504225057 77 271 0.0 0.0 0.00 0.00 0.00 48 1006.3
20260504224559 77 275 0.0 0.0 0.00 0.00 0.00 49 1006.2
20260504224057 77 276 0.0 0.0 0.00 0.00 0.00 49 1006.2
20260504223555 77 249 0.0 0.0 0.00 0.00 0.00 49 1006.3
20260504223056 76 247 0.0 0.0 0.00 0.00 0.00 49 1006.4
20260504222553 76 279 0.0 0.0 0.00 0.00 0.00 49 1006.3
20260504222053 76 258 0.0 0.0 0.00 0.00 0.00 49 1006.4
20260504221554 76 315 0.0 0.0 0.00 0.00 0.00 49 1006.3
20260504221052 76 299 0.0 0.0 0.00 0.00 0.00 49 1006.4
20260504220552 76 294 0.0 0.0 0.00 0.00 0.00 49 1006.4
20260504220110 76 271 0.0 0.0 0.00 0.00 0.00 49 1006.5
20260504215552 76 323 0.0 0.0 0.00 0.00 0.00 48 1006.5
20260504215052 76 281 0.0 0.0 0.00 0.00 0.00 48 1006.6
20260504214554 76 284 0.0 0.0 0.00 0.00 0.00 50 1006.7
20260504214049 76 219 0.0 0.0 0.00 0.00 0.00 50 1006.6
20260504213549 75 277 0.0 0.0 0.00 0.00 0.00 50 1006.7
20260504213054 75 282 0.0 0.0 0.00 0.00 0.00 50 1006.8
20260504212549 75 292 0.0 0.0 0.00 0.00 0.00 49 1006.8
20260504212051 76 298 0.0 0.0 0.00 0.00 0.00 47 1006.9
20260504211551 76 304 0.0 0.0 0.00 0.00 0.00 49 1007.0
20260504211047 76 286 0.0 0.0 0.00 0.00 0.00 50 1007.0
20260504210546 76 215 0.0 0.0 0.00 0.00 0.00 50 1007.1
20260504210045 75 269 0.0 0.0 0.00 0.00 0.00 50 1007.1
20260504205544 75 282 0.0 0.0 0.00 0.00 0.00 50 1007.1
20260504205044 75 264 0.0 0.0 0.00 0.00 0.00 50 1007.2
20260504204544 74 271 0.0 0.0 0.00 0.00 0.00 52 1007.2
20260504204042 74 262 0.0 0.0 0.00 0.00 0.00 51 1007.2
20260504203542 74 275 0.0 0.0 0.00 0.00 0.00 51 1007.2
20260504203042 74 295 0.0 0.0 0.00 0.00 0.00 50 1007.3
20260504202542 74 281 0.0 0.0 0.00 0.00 0.00 50 1007.2
20260504202042 74 285 0.0 0.0 0.00 0.00 0.00 53 1007.3
20260504201540 74 265 0.0 0.0 0.00 0.00 0.00 51 1007.5
20260504201043 74 306 0.0 0.0 0.00 0.00 0.00 51 1007.4
20260504200540 74 288 0.0 0.0 0.00 0.00 0.00 51 1007.5
20260504200043 73 289 0.0 0.0 0.00 0.00 0.00 52 1007.5
20260504195538 73 289 0.0 0.0 0.00 0.00 0.00 55 1007.6
20260504195036 73 271 0.0 0.0 0.00 0.00 0.00 51 1007.7
20260504194540 73 288 0.0 0.0 0.00 0.00 0.00 52 1007.6
20260504194034 72 214 0.0 0.0 0.00 0.00 0.00 53 1007.6
20260504193534 72 263 0.0 0.0 0.00 0.00 0.00 54 1007.7
20260504193032 72 276 0.0 0.0 0.00 0.00 0.00 54 1007.8
20260504192533 72 286 0.0 0.0 0.00 0.00 0.00 55 1007.8
20260504192030 71 252 0.0 0.0 0.00 0.00 0.00 55 1007.9
20260504191546 71 286 0.0 0.0 0.00 0.00 0.00 53 1007.9
20260504191029 71 294 0.0 0.0 0.00 0.00 0.00 57 1007.9
20260504190528 71 309 0.0 0.0 0.00 0.00 0.00 57 1008.0
20260504190027 71 284 0.0 0.0 0.00 0.00 0.00 59 1008.0
20260504185525 70 263 0.0 0.0 0.00 0.00 0.00 57 1008.0
20260504185025 70 304 0.0 0.0 0.00 0.00 0.00 57 1008.1
20260504184524 69 275 0.0 0.0 0.00 0.00 0.00 59 1008.0
20260504184025 69 255 0.0 0.0 0.00 0.00 0.00 59 1008.1
20260504183521 69 297 0.0 0.0 0.00 0.00 0.00 58 1008.1
20260504183036 69 311 0.0 0.0 0.00 0.00 0.00 58 1008.1
20260504182520 69 290 0.0 0.0 0.00 0.00 0.00 57 1008.0
20260504182022 69 298 0.0 0.0 0.00 0.00 0.00 59 1008.1
20260504181524 68 305 0.0 0.0 0.00 0.00 0.00 59 1008.2
20260504181017 68 282 0.0 0.0 0.00 0.00 0.00 61 1008.1
20260504180517 68 272 0.0 0.0 0.00 0.00 0.00 60 1008.2
20260504180020 67 328 0.0 0.0 0.00 0.00 0.00 60 1008.2
20260504175515 67 292 0.0 0.0 0.00 0.00 0.00 60 1008.1
20260504175014 67 308 0.0 0.0 0.00 0.00 0.00 62 1008.1
20260504174515 67 302 0.0 0.0 0.00 0.00 0.00 61 1008.1
20260504174013 66 302 0.0 0.0 0.00 0.00 0.00 61 1008.2
20260504173512 66 257 0.0 0.0 0.00 0.00 0.00 62 1008.1
20260504173009 66 281 0.0 0.0 0.00 0.00 0.00 62 1008.1
20260504172510 66 313 0.0 0.0 0.00 0.00 0.00 62 1008.0
20260504172009 65 287 0.0 0.0 0.00 0.00 0.00 62 1008.1
20260504171507 65 286 0.0 0.0 0.00 0.00 0.00 63 1008.1
20260504171010 65 290 0.0 0.0 0.00 0.00 0.00 64 1008.1
20260504170508 65 306 0.0 0.0 0.00 0.00 0.00 63 1008.1
20260504151050 59 321 0.0 0.0 0.00 0.00 0.00 63 1008.2
20260504150552 59 300 0.0 0.0 0.00 0.00 0.00 63 1008.2
20260504141046 57 269 0.0 0.0 0.00 0.00 0.00 64 1007.8
20260504140546 57 221 0.0 0.0 0.00 0.00 0.00 65 1007.7
20260504130542 54 264 0.0 0.0 0.00 0.00 0.00 61 1007.1